[[{"header":{"parameterUnit":"m.s-1","parameterCategory":1,"la1":30.2991,"la2":30.254,"lo1":-89.0895,"lo2":-89.0444,"dy":0.0017,"dx":0.0017,"nx":28,"ny":28,"refTime":"2024-08-02T09:00:00:Z","depth":0,"parameterNumber":2,"parameterNumberName":"U-component_of_WINDS"},"data":[0,0,0,0,0,0,0,0,0,0,0,0,0,0,0,0,0,0,0,0,0,0,0,0,0,0,0,0,0,0,0,0,0,0,0,0,0,0,0,0,0,0,0,0,0,0,0,0,0,0,0,0,0,0,0,0,0,0,4.7644,4.7645,0,4.7765,4.7767,4.7768,4.7682,4.7679,4.7675,4.7671,4.78,4.7807,4.7813,0,0,0,0,0,0,0,0,0,0,0,0,0,4.734,4.7346,4.7644,4.7645,4.7647,4.7765,4.7767,4.7769,4.7683,4.7678,4.7674,4.7669,4.7797,4.7806,4.7814,0,0,0,0,0,0,0,0,0,0,0,0,0,4.7468,4.7348,4.7643,4.7618,4.7617,4.7765,4.7767,4.7769,4.7684,4.7678,4.7672,4.7667,4.7795,4.7805,4.7815,4.7996,0,0,4.7847,4.7852,0,0,0,0,0,0,0,0,4.7461,4.7479,4.762,4.762,4.7619,4.7703,4.7707,4.7845,4.7685,4.7659,4.7671,4.7664,4.7772,4.7784,4.782,4.8002,4.8007,4.7848,4.7855,4.7859,4.7862,0,0,0,0,0,0,0,4.7452,4.7473,4.7692,4.7623,4.7622,4.7602,4.7613,4.7733,4.7747,4.7661,4.7655,4.767,4.7771,4.781,4.7822,4.8009,4.7848,4.7857,4.7864,4.7868,4.8343,4.8349,0,0,0,0,0,0,4.7445,4.7466,4.7688,4.7695,4.7524,4.7612,4.7625,4.7682,4.7745,4.7749,4.7675,4.7666,4.7795,4.781,4.7827,4.8041,4.7859,4.7869,4.7875,4.8337,4.8345,4.8352,0,0,0,0,0,0,4.7439,4.7465,4.7683,4.7579,4.7606,4.7623,4.7688,4.7687,4.7726,4.7756,4.7758,4.7712,4.7791,4.7812,4.7954,4.8044,4.7874,4.7883,4.833,4.834,4.8348,4.8472,0,0,0,0,0,0,4.743,4.7464,4.7532,4.7582,4.7611,4.7808,4.7693,4.7694,4.7744,4.7733,4.7791,4.7795,4.7788,4.7938,4.7964,4.8056,4.7891,4.8322,4.8334,4.8345,4.846,4.8484,4.8505,0,0,0,0,0,4.742,4.7563,4.7536,4.7563,4.7697,4.7813,4.783,4.7818,4.7752,4.7821,4.7839,4.7793,4.803,4.7954,4.7982,4.8078,4.8316,4.8331,4.8344,4.8449,4.8479,4.8505,0,0,0,0,0,0,4.7525,4.7569,4.7539,4.7703,4.7755,4.7798,4.7885,4.785,4.7923,4.791,4.7892,4.7906,4.8055,4.808,4.7995,4.8255,4.8163,4.8183,4.8233,4.8262,4.8284,4.8275,4.79,0,0,0,0,0,4.7567,4.7657,4.7691,4.7832,4.7859,4.7868,4.7918,4.7904,4.7957,4.7979,4.8008,4.8063,4.8149,4.8207,4.8288,4.8463,4.8474,4.8543,4.8565,4.8584,4.8602,4.8695,4.8726,4.8398,4.8398,4.8398,0,0,4.7655,4.769,4.7748,4.7854,4.7892,4.7986,4.7887,4.7991,4.806,4.7995,4.813,4.8154,4.8214,4.8372,4.8444,4.8398,4.8695,4.8602,4.8617,4.8625,4.8713,4.8744,4.8772,4.8408,4.8406,4.8405,0,0,4.7864,4.79,4.802,4.806,4.8119,4.8124,4.8153,4.8202,4.8214,4.8349,4.8302,4.8385,4.8535,4.8579,4.8621,4.8845,4.8805,4.8872,4.8991,4.9082,4.9108,4.9131,4.921,4.9239,4.889,4.889,4.889,0,4.7966,4.8105,4.8087,4.8194,4.8242,4.8185,4.8307,4.8348,4.8431,4.8465,4.8413,4.8598,4.8635,4.8802,4.8857,4.8893,4.8926,4.8865,4.9105,4.9128,4.9149,4.9224,4.9254,4.8898,4.8897,4.8896,4.8895,0,4.8228,4.8325,4.8415,4.8495,4.8553,4.8667,4.8667,4.8728,4.8708,4.8719,4.8856,4.8898,4.8986,4.9025,4.9008,4.919,4.916,4.9107,4.9014,4.9188,4.9259,4.9287,4.8909,4.8906,4.8904,4.8902,0,0,4.8507,4.8574,4.8608,4.8642,4.8703,4.8778,4.8889,4.8974,4.9026,4.9085,4.9178,4.9305,4.9256,4.9304,4.9291,4.9371,4.9545,4.9308,4.9309,4.935,4.9747,4.9786,4.982,4.9519,4.9524,4.9528,4.9742,0,4.8718,4.8911,4.8897,4.908,4.9168,4.9116,4.9213,4.9261,4.9273,4.9351,4.9365,4.9455,4.9384,4.9412,4.9489,4.9507,4.9624,4.9492,4.9605,4.961,4.9591,4.9857,4.9899,5.0098,4.9769,4.9774,4.9778,0,4.899,4.9057,4.9247,4.9293,4.9329,4.9417,4.9492,4.9568,4.9621,4.9624,4.9677,4.965,4.9763,4.9667,4.9822,4.9733,4.9778,4.9794,4.9802,4.9812,4.9704,4.9874,5.0162,5.0192,4.9821,4.9817,4.9814,0,4.9174,4.9311,4.9442,4.9474,4.9531,4.9593,4.962,4.9667,4.9718,4.9785,4.9818,4.9898,4.9941,5.0004,4.9999,4.993,5.0157,5.0061,5.0163,5.0163,5.0213,5.021,5.0513,5.0244,5.0244,5.0243,5.0242,0,4.9411,4.9529,4.9525,4.9606,4.9737,4.9721,4.9851,4.9871,4.9914,4.9998,4.9957,5.0037,5.0027,5.0108,5.0105,5.0234,5.0254,5.026,5.0258,5.0264,5.0263,5.0293,5.0279,5.0251,5.0249,5.0248,5.0246,0,4.9638,4.964,4.978,4.9821,4.9834,4.9929,4.9965,5.0041,5.005,5.0157,5.0181,5.0195,5.0287,5.0289,5.0396,5.0394,5.0551,5.0533,5.0532,5.0529,5.0631,5.0621,5.0963,5.1006,5.071,5.0713,5.0715,0,4.9789,4.9879,4.9929,4.9981,5.0012,5.0097,5.0149,5.0136,5.0191,5.0258,5.0326,5.0415,5.0485,5.0635,5.0655,5.0736,5.072,5.0834,5.0732,5.0734,5.0721,5.0715,5.0724,5.0854,5.0858,5.086,5.0863,0,5.0056,5.0052,5.0127,5.0203,5.0265,5.0324,5.0379,5.0425,5.0418,5.0483,5.0576,5.063,5.0737,5.0826,5.0904,5.0932,5.0897,5.0894,5.0922,5.0929,5.0924,5.0927,5.0586,5.0887,5.0884,5.0882,5.0881,5.088,5.025,5.0326,5.0373,5.0458,5.0497,5.0549,5.0622,5.0639,5.0716,5.0801,5.0789,5.0893,5.0943,5.1044,5.1079,5.116,5.112,5.1161,5.1171,5.1181,5.1192,5.0911,5.1174,5.1174,5.1173,5.1172,5.1172,0,5.0514,5.0541,5.0619,5.0696,5.0762,5.0722,5.078,5.0838,5.093,5.0978,5.1047,5.1154,5.1239,5.1265,5.1347,5.1407,5.1393,5.1429,5.1424,5.1431,5.1223,5.119,5.1439,5.1439,5.1439,5.1439,5.1439,5.1439,5.066,5.0786,5.0788,5.0934,5.096,5.106,5.1097,5.1144,5.1183,5.1303,5.1373,5.1388,5.1428,5.1513,5.1589,5.1594,5.1626,5.1669,5.1668,5.1473,5.1446,5.1421,5.139,5.1676,5.1677,5.1869,5.1871,5.1872]},{"header":{"parameterUnit":"m.s-1","parameterCategory":1,"la1":30.2991,"la2":30.254,"lo1":-89.0895,"lo2":-89.0444,"dy":0.0017,"dx":0.0017,"nx":28,"ny":28,"refTime":"2024-08-02T09:00:00:Z","depth":0,"parameterNumber":3,"parameterNumberName":"V-component_of_WINDS"},"data":[0,0,0,0,0,0,0,0,0,0,0,0,0,0,0,0,0,0,0,0,0,0,0,0,0,0,0,0,0,0,0,0,0,0,0,0,0,0,0,0,0,0,0,0,0,0,0,0,0,0,0,0,0,0,0,0,0,0,0.6245,0.6246,0,0.6305,0.6306,0.6307,0.6323,0.6322,0.6322,0.6322,0.6382,0.6384,0.6386,0,0,0,0,0,0,0,0,0,0,0,0,0,0.6143,0.6145,0.6245,0.6246,0.6247,0.6305,0.6306,0.6307,0.6323,0.6322,0.6322,0.6322,0.6382,0.6384,0.6386,0,0,0,0,0,0,0,0,0,0,0,0,0,0.6194,0.6145,0.6245,0.6262,0.6264,0.6305,0.6306,0.6307,0.6323,0.6322,0.6322,0.6321,0.6381,0.6384,0.6387,0.6415,0,0,0.6396,0.6397,0,0,0,0,0,0,0,0,0.6191,0.6197,0.6259,0.6261,0.6263,0.6306,0.6292,0.6343,0.6323,0.6301,0.6322,0.6321,0.6357,0.6362,0.6375,0.6418,0.6421,0.6396,0.6398,0.6399,0.64,0,0,0,0,0,0,0,0.6187,0.6195,0.6269,0.626,0.6262,0.6266,0.6272,0.6302,0.6331,0.6302,0.6304,0.6311,0.6359,0.6372,0.6376,0.6422,0.6396,0.6398,0.64,0.6401,0.6491,0.6491,0,0,0,0,0,0,0.6181,0.6192,0.6267,0.6271,0.6225,0.6268,0.6275,0.6293,0.6331,0.6336,0.6311,0.6311,0.6367,0.6373,0.6378,0.6414,0.6399,0.6402,0.6403,0.649,0.6491,0.6491,0,0,0,0,0,0,0.6179,0.6188,0.6265,0.6232,0.6242,0.627,0.629,0.6294,0.6308,0.6337,0.6343,0.6319,0.6367,0.6374,0.6406,0.6416,0.6403,0.6406,0.6489,0.649,0.6491,0.6486,0,0,0,0,0,0,0.6176,0.6187,0.6198,0.6232,0.6244,0.6292,0.629,0.6296,0.6313,0.6313,0.6347,0.6352,0.6367,0.6401,0.6409,0.642,0.6408,0.6489,0.649,0.6491,0.6485,0.6486,0.6487,0,0,0,0,0,0.6172,0.6194,0.6199,0.6208,0.6259,0.6292,0.6299,0.6317,0.6313,0.6325,0.6344,0.6351,0.6414,0.6405,0.6413,0.6425,0.6488,0.6489,0.6491,0.6485,0.6486,0.6487,0,0,0,0,0,0,0.6161,0.6199,0.6205,0.6238,0.6262,0.6295,0.631,0.6318,0.6343,0.6342,0.6363,0.637,0.64,0.6416,0.6405,0.6454,0.6451,0.6454,0.6443,0.6445,0.6446,0.6442,0.641,0,0,0,0,0,0.6163,0.6187,0.6219,0.6246,0.6257,0.6282,0.6297,0.6308,0.6334,0.6344,0.6365,0.6389,0.6414,0.643,0.6455,0.6487,0.6494,0.65,0.6501,0.6502,0.6504,0.6522,0.6524,0.6496,0.6496,0.6496,0,0,0.6166,0.619,0.6204,0.6244,0.6264,0.6288,0.629,0.6316,0.6334,0.6348,0.6379,0.6395,0.6423,0.6455,0.647,0.6469,0.6513,0.6503,0.6504,0.6506,0.6523,0.6526,0.6528,0.6497,0.6497,0.6497,0,0,0.6186,0.6206,0.6231,0.625,0.628,0.6296,0.6301,0.6333,0.6344,0.6376,0.6386,0.6408,0.6451,0.647,0.6486,0.651,0.6517,0.6518,0.6524,0.6541,0.6543,0.6545,0.6554,0.6557,0.652,0.652,0.652,0,0.6186,0.6224,0.6242,0.6268,0.6284,0.6297,0.6322,0.634,0.6376,0.6387,0.6385,0.6439,0.6459,0.6495,0.6501,0.6513,0.652,0.6515,0.6541,0.6544,0.6546,0.6554,0.6558,0.652,0.652,0.652,0.652,0,0.6223,0.6249,0.6265,0.63,0.6318,0.6343,0.6364,0.6381,0.639,0.6406,0.6437,0.6461,0.6491,0.65,0.651,0.6537,0.6536,0.6537,0.6534,0.6548,0.6556,0.656,0.652,0.652,0.652,0.652,0,0,0.6238,0.6282,0.6287,0.6303,0.6336,0.6356,0.6381,0.641,0.6424,0.6448,0.6469,0.6504,0.6506,0.6523,0.6535,0.6549,0.6567,0.6549,0.655,0.6552,0.6599,0.6597,0.6601,0.6571,0.6572,0.6573,0.6596,0,0.6262,0.6307,0.6324,0.6361,0.6385,0.6396,0.6418,0.644,0.6455,0.6477,0.6493,0.6518,0.6519,0.6529,0.6544,0.6562,0.6577,0.656,0.6591,0.6592,0.6584,0.6605,0.6605,0.6626,0.66,0.66,0.6601,0,0.6295,0.632,0.6359,0.6389,0.6399,0.6419,0.6446,0.6467,0.6492,0.6502,0.6521,0.6531,0.6557,0.6551,0.6587,0.6575,0.6588,0.6599,0.66,0.6604,0.6597,0.661,0.6633,0.6636,0.6606,0.6606,0.6605,0,0.6302,0.6345,0.6374,0.6387,0.6422,0.6435,0.645,0.6475,0.6491,0.6515,0.6525,0.6551,0.6566,0.6585,0.6602,0.6597,0.6636,0.6632,0.6644,0.6644,0.6653,0.6652,0.6678,0.6661,0.666,0.666,0.666,0,0.6327,0.635,0.6378,0.6395,0.6422,0.644,0.6466,0.6481,0.6503,0.6524,0.6535,0.6554,0.6575,0.6597,0.661,0.6637,0.6643,0.6651,0.6654,0.665,0.6649,0.666,0.6659,0.6661,0.6661,0.6661,0.6661,0,0.6339,0.6358,0.6391,0.6421,0.6429,0.6447,0.6473,0.6491,0.6506,0.6532,0.6539,0.6562,0.6588,0.6606,0.664,0.6648,0.6677,0.668,0.6669,0.6671,0.6682,0.6681,0.6716,0.6721,0.67,0.67,0.67,0,0.6354,0.6372,0.6404,0.6419,0.6434,0.6458,0.6474,0.6492,0.6509,0.6538,0.6552,0.6578,0.6601,0.6641,0.6661,0.6686,0.669,0.6701,0.6694,0.6689,0.669,0.6689,0.6691,0.6702,0.6702,0.6702,0.6702,0,0.6377,0.6386,0.6409,0.6436,0.6455,0.6477,0.6499,0.651,0.6532,0.6549,0.6576,0.6593,0.6627,0.6653,0.668,0.6695,0.6702,0.6704,0.6708,0.6704,0.6697,0.6701,0.6672,0.6703,0.6703,0.6703,0.6703,0.6703,0.6391,0.6408,0.6433,0.6459,0.6477,0.6497,0.6515,0.6532,0.6554,0.6583,0.6592,0.662,0.6643,0.668,0.6695,0.6716,0.6716,0.6722,0.6724,0.6725,0.6725,0.6693,0.6721,0.6721,0.6721,0.6721,0.6721,0,0.6416,0.6432,0.6455,0.6485,0.6505,0.651,0.6534,0.655,0.6575,0.6596,0.6618,0.6648,0.6673,0.6694,0.672,0.6732,0.6736,0.6739,0.6738,0.6741,0.6724,0.6718,0.6735,0.6735,0.6735,0.6735,0.6735,0.6735,0.6431,0.6459,0.647,0.6507,0.6524,0.6551,0.6564,0.6582,0.6599,0.6633,0.6654,0.6667,0.6688,0.6716,0.6739,0.6744,0.6753,0.6754,0.6761,0.6744,0.6742,0.6741,0.6735,0.6756,0.6756,0.6776,0.6777,0.6777]}]]